Regional Weather Roundup
Issued by NWS

Home | Current Version | Previous Version | Text Only | Print | Product List | Glossary On
Versions: 1 2 3 4 5 6 7 8 9 10 11 12 13 14 15 16 17 18 19 20 21 22 23 24 25 26 27 28 29 30 31 32 33 34 35 36 37 38 39 40 41 42 43 44 45 46 47 48 49 50
000
ASUS44 KJAN 311003
RWRMS

MISSISSIPPI HOURLY WEATHER ROUNDUP
NATIONAL WEATHER SERVICE JACKSON MS
500 AM CDT FRI JUL 31 2015

NOTE: "FAIR: INDICATES FEW OR NO CLOUDS BELOW 12,000 FEET WITH NO
SIGNIFICANT WEATHER AND/OR OBSTRUCTIONS TO VISIBILITY.

MSZ001>002-007>008-010>013-018>021-025>028-034>036-311100-
NORTHWEST MISSISSIPPI

CITY           SKY/WX    TMP DP  RH WIND       PRES   REMARKS
CLARKSDALE       N/A     68  68 100 N8        30.08R
CLEVELAND      FAIR      68  67  96 N5        30.05S
GREENWOOD      PTCLDY    66  62  87 NE3       30.03F
GREENVILLE     PTCLDY    70  66  87 N7        30.04S
OLIVE BRANCH     N/A     68  66  94 N5        30.08S
OXFORD         FAIR      63  61  94 CALM      30.08S
TUNICA         SUNNY     68  64  88 N6        30.08S
$$

MSZ003>006-009-014>017-022>024-029>033-037>039-311100-
NORTHEAST MISSISSIPPI

CITY           SKY/WX    TMP DP  RH WIND       PRES   REMARKS
COLUMBUS AFB   CLEAR     68  64  86 N8        30.01S
CORINTH        FAIR      64  63  94 CALM      30.06R
GOLDN TRIANGLE CLEAR     70  61  73 N6        30.00S
STARKVILLE     FAIR      66  63  88 CALM      30.02S
TUPELO         CLEAR     67  62  84 NE8       30.04S
$$

MSZ040-058-311100-
CENTRAL MISSISSIPPI

CITY           SKY/WX    TMP DP  RH WIND       PRES   REMARKS
JACKSON INTL   CLEAR     76  64  66 N10       29.99F
JACKSON HAWKNS CLEAR     74  64  71 N5        30.01S
MERIDIAN KEY   CLEAR     73  63  70 N9        29.97F
MERIDIAN NAS   CLEAR     72  64  76 N7        29.99R
VICKSBURG      CLEAR     73  67  81 N6        30.01S
$$

MSZ059>079-311100-
SOUTH MISSISSIPPI

CITY           SKY/WX    TMP DP  RH WIND       PRES   REMARKS
BROOKHAVEN       N/A     72  70  94 N3        30.00F
HATTIESBURG    PTCLDY    74  70  87 NW5       29.95F
MCCOMB         PTCLDY    76  70  82 N6        29.98S
NATCHEZ        PTCLDY    73  70  88 N5        30.00S
PINE BELT      PTCLDY    72  66  83 N8        29.96S
$$

MSZ080>082-311100-
COASTAL MISSISSIPPI

CITY           SKY/WX    TMP DP  RH WIND       PRES   REMARKS
BILOXI         NOT AVBL
PASCAGOULA     CLOUDY    75  74  96 N6        29.90R
GULFPORT       MOCLDY    77  72  84 N8        29.91R
$$



USA.gov is the U.S. government's official web portal to all federal, state and local government web resources and services.